• In Austria
  • List of Countries
  • For 7 days
  • Water Temperature
  • Satellite Maps
  • Weather Map
  • News
  • Weather Widgets
  • user-avatar
    Login

    Hourly Weather Canillo

    Today, 16 November, Friday

    Time Temperature Precipitation Wind Pressure Humidity
    00:00 +4°C° 0 mm 1 mps 620 mmHg 87%
    01:00 +4°C° 0 mm 1 mps 620 mmHg 87%
    02:00 +4°C° 0 mm 1 mps 620 mmHg 87%
    03:00 +4°C° 0 mm 1 mps 620 mmHg 87%
    04:00 +4°C° 0 mm 1 mps 620 mmHg 87%
    05:00 +3°C° 0 mm 1 mps 620 mmHg 87%
    06:00 +3°C° 0 mm 1 mps 620 mmHg 87%
    07:00 +5°C° 0 mm 1 mps 620 mmHg 83%
    08:00 +6°C° 0 mm 1 mps 621 mmHg 80%
    09:00 +7°C° 0 mm 1 mps 622 mmHg 76%
    10:00 +8°C° 0 mm 1 mps 622 mmHg 73%
    11:00 +8°C° 0 mm 2 mps 622 mmHg 69%
    12:00 +9°C° 0 mm 2 mps 623 mmHg 66%
    13:00 +9°C° 0 mm 2 mps 622 mmHg 69%
    14:00 +8°C° 0 mm 2 mps 622 mmHg 72%
    15:00 +8°C° 0 mm 2 mps 621 mmHg 74%
    16:00 +7°C° 0 mm 2 mps 621 mmHg 81%
    17:00 +6°C° 0 mm 1 mps 620 mmHg 87%
    18:00 +5°C° 0 mm 1 mps 620 mmHg 93%
    19:00 +5°C° 0 mm 1 mps 620 mmHg 93%
    20:00 +4°C° 0 mm 1 mps 620 mmHg 92%
    21:00 +4°C° 0 mm 1 mps 620 mmHg 92%
    22:00 +4°C° 0 mm 1 mps 619 mmHg 91%
    23:00 +4°C° 0 mm 1 mps 619 mmHg 91%

    Tomorrow, 17 November, Saturday

    Time Temperature Precipitation Wind Pressure Humidity
    00:00 +4°C° 0 mm 1 mps 619 mmHg 90%
    01:00 +4°C° 0 mm 1 mps 619 mmHg 90%
    02:00 +3°C° 0 mm 1 mps 619 mmHg 90%
    03:00 +3°C° 0 mm 1 mps 618 mmHg 90%
    04:00 +3°C° 0 mm 1 mps 618 mmHg 90%
    05:00 +3°C° 0 mm 1 mps 618 mmHg 89%
    06:00 +3°C° 0 mm 1 mps 617 mmHg 89%
    07:00 +4°C° 0 mm 1 mps 618 mmHg 85%
    08:00 +5°C° 0 mm 1 mps 618 mmHg 80%
    09:00 +6°C° 0 mm 1 mps 619 mmHg 75%
    10:00 +7°C° 0 mm 1 mps 619 mmHg 72%
    11:00 +7°C° 0 mm 1 mps 619 mmHg 70%
    12:00 +8°C° 0 mm 1 mps 619 mmHg 67%
    13:00 +7°C° 0.1 mm 1 mps 618 mmHg 72%
    14:00 +6°C° 0.1 mm 2 mps 618 mmHg 76%
    15:00 +5°C° 0.1 mm 2 mps 617 mmHg 80%
    16:00 +4°C° 0.2 mm 2 mps 617 mmHg 83%
    17:00 +3°C° 0.2 mm 2 mps 616 mmHg 87%
    18:00 +3°C° 0.2 mm 2 mps 616 mmHg 90%
    19:00 +2°C° 0.4 mm 2 mps 616 mmHg 90%
    20:00 +2°C° 0.4 mm 2 mps 616 mmHg 90%
    21:00 +2°C° 0.4 mm 2 mps 616 mmHg 91%
    22:00 +1°C° 0.8 mm 3 mps 616 mmHg 90%
    23:00 +1°C° 0.8 mm 3 mps 615 mmHg 90%

    Day after tomorrow, 18 November, Sunday

    Time Temperature Precipitation Wind Pressure Humidity
    00:00 0°C° 0.8 mm 3 mps 615 mmHg 90%
    01:00 0°C° 0.9 mm 3 mps 615 mmHg 90%
    02:00 0°C° 0.9 mm 3 mps 614 mmHg 90%
    03:00 +1°C° 0.9 mm 2 mps 614 mmHg 89%
    04:00 +1°C° 1.3 mm 2 mps 614 mmHg 89%
    05:00 +1°C° 1.3 mm 2 mps 614 mmHg 89%
    06:00 +1°C° 1.3 mm 2 mps 614 mmHg 89%
    07:00 +1°C° 1.6 mm 2 mps 614 mmHg 89%
    08:00 0°C° 1.6 mm 3 mps 614 mmHg 89%
    09:00 0°C° 1.6 mm 3 mps 614 mmHg 89%
    10:00 0°C° 1.6 mm 3 mps 614 mmHg 88%
    11:00 0°C° 1.6 mm 3 mps 614 mmHg 88%
    12:00 +1°C° 1.6 mm 3 mps 614 mmHg 88%
    13:00 +1°C° 0.9 mm 3 mps 614 mmHg 88%
    14:00 +1°C° 0.9 mm 3 mps 614 mmHg 88%
    15:00 +1°C° 0.9 mm 3 mps 614 mmHg 87%
    16:00 +1°C° 0.4 mm 3 mps 614 mmHg 89%
    17:00 0°C° 0.4 mm 3 mps 613 mmHg 90%
    18:00 0°C° 0.4 mm 3 mps 613 mmHg 91%
    19:00 0°C° 0.1 mm 3 mps 613 mmHg 91%
    20:00 +1°C° 0.1 mm 2 mps 613 mmHg 91%
    21:00 -1°C° 0.1 mm 2 mps 614 mmHg 91%
    22:00 -1°C° 0.1 mm 2 mps 613 mmHg 90%
    23:00 -1°C° 0.1 mm 2 mps 613 mmHg 90%

    19 November, Monday

    Time Temperature Precipitation Wind Pressure Humidity
    00:00 -1°C° 0.1 mm 2 mps 613 mmHg 90%
    01:00 -1°C° 0 mm 2 mps 613 mmHg 89%
    02:00 -1°C° 0 mm 2 mps 612 mmHg 89%
    03:00 -1°C° 0 mm 2 mps 612 mmHg 89%
    04:00 -2°C° 0 mm 2 mps 612 mmHg 88%
    05:00 -2°C° 0 mm 2 mps 611 mmHg 87%
    06:00 -2°C° 0 mm 2 mps 611 mmHg 86%
    07:00 +1°C° 0 mm 1 mps 612 mmHg 85%
    08:00 +2°C° 0 mm 1 mps 612 mmHg 83%
    09:00 +3°C° 0 mm 1 mps 612 mmHg 81%
    10:00 +4°C° 0 mm 1 mps 612 mmHg 79%
    11:00 +5°C° 0 mm 1 mps 613 mmHg 78%
    12:00 +5°C° 0 mm 1 mps 613 mmHg 77%
    13:00 +5°C° 0 mm 1 mps 612 mmHg 78%
    14:00 +5°C° 0 mm 1 mps 612 mmHg 79%
    15:00 +4°C° 0 mm 1 mps 611 mmHg 80%
    16:00 +3°C° 0 mm 1 mps 611 mmHg 84%
    17:00 +2°C° 0 mm 1 mps 610 mmHg 88%
    18:00 0°C° 0 mm 1 mps 610 mmHg 91%
    19:00 0°C° 0 mm 1 mps 610 mmHg 90%
    20:00 -1°C° 0 mm 1 mps 609 mmHg 88%
    21:00 -1°C° 0 mm 1 mps 609 mmHg 86%
    22:00 -2°C° 0 mm 1 mps 609 mmHg 82%
    23:00 -4°C° 0 mm 2 mps 609 mmHg 78%

    20 November, Tuesday

    Time Temperature Precipitation Wind Pressure Humidity
    00:00 -4°C° 0 mm 2 mps 609 mmHg 75%
    01:00 -5°C° 0 mm 2 mps 608 mmHg 74%
    02:00 -5°C° 0 mm 2 mps 608 mmHg 74%
    03:00 -5°C° 0 mm 2 mps 608 mmHg 73%
    04:00 -5°C° 0 mm 2 mps 608 mmHg 75%
    05:00 -5°C° 0 mm 2 mps 608 mmHg 76%
    06:00 -5°C° 0 mm 2 mps 608 mmHg 78%
    07:00 -4°C° 0 mm 2 mps 608 mmHg 75%
    08:00 -3°C° 0 mm 2 mps 609 mmHg 73%
    09:00 -1°C° 0 mm 2 mps 610 mmHg 71%
    10:00 +1°C° 0 mm 2 mps 610 mmHg 68%
    11:00 +1°C° 0 mm 3 mps 610 mmHg 66%
    12:00 +1°C° 0 mm 3 mps 611 mmHg 64%
    13:00 +1°C° 0 mm 3 mps 611 mmHg 64%
    14:00 0°C° 0 mm 3 mps 610 mmHg 65%
    15:00 0°C° 0 mm 3 mps 610 mmHg 65%
    16:00 -2°C° 0 mm 3 mps 610 mmHg 71%
    17:00 -4°C° 0 mm 2 mps 609 mmHg 76%
    18:00 -6°C° 0 mm 2 mps 609 mmHg 82%
    19:00 -6°C° 0 mm 2 mps 609 mmHg 81%
    20:00 -7°C° 0 mm 2 mps 609 mmHg 81%
    21:00 -7°C° 0 mm 2 mps 610 mmHg 80%
    22:00 -7°C° 0 mm 2 mps 610 mmHg 78%
    23:00 -7°C° 0 mm 2 mps 610 mmHg 76%

    21 November, Wednesday

    Time Temperature Precipitation Wind Pressure Humidity
    00:00 -8°C° 0 mm 2 mps 610 mmHg 73%
    01:00 -8°C° 0 mm 2 mps 610 mmHg 71%
    02:00 -8°C° 0 mm 2 mps 609 mmHg 68%
    03:00 -8°C° 0 mm 2 mps 609 mmHg 66%
    04:00 -8°C° 0 mm 2 mps 609 mmHg 64%
    05:00 -8°C° 0 mm 2 mps 609 mmHg 62%
    06:00 -8°C° 0 mm 2 mps 610 mmHg 60%
    07:00 -7°C° 0 mm 2 mps 610 mmHg 59%
    08:00 -6°C° 0 mm 2 mps 611 mmHg 57%
    09:00 -2°C° 0 mm 1 mps 612 mmHg 56%
    10:00 -3°C° 0 mm 2 mps 612 mmHg 56%
    11:00 -2°C° 0 mm 2 mps 613 mmHg 56%
    12:00 -1°C° 0 mm 2 mps 613 mmHg 55%
    13:00 -1°C° 0 mm 2 mps 613 mmHg 59%
    14:00 -1°C° 0 mm 2 mps 613 mmHg 62%
    15:00 0°C° 0 mm 1 mps 613 mmHg 65%
    16:00 -1°C° 0 mm 1 mps 612 mmHg 71%
    17:00 -2°C° 0 mm 1 mps 612 mmHg 77%
    18:00 -4°C° 0 mm 1 mps 612 mmHg 83%
    19:00 -4°C° 0 mm 1 mps 612 mmHg 84%
    20:00 -4°C° 0 mm 1 mps 612 mmHg 84%
    21:00 -4°C° 0 mm 1 mps 613 mmHg 85%
    22:00 -4°C° 0 mm 1 mps 613 mmHg 85%
    23:00 -4°C° 0 mm 1 mps 613 mmHg 86%
    Show more